CST,Max TemperatureF,Mean TemperatureF,Min TemperatureF,Max Dew PointF,MeanDew PointF,Min DewpointF,Max Humidity, Mean Humidity, Min Humidity, Max Sea Level PressureIn, Mean Sea Level PressureIn, Min Sea Level PressureIn, Max VisibilityMiles, Mean VisibilityMiles, Min VisibilityMiles, Max Wind SpeedMPH, Mean Wind SpeedMPH, Max Gust SpeedMPH,PrecipitationIn, CloudCover, Events, WindDirDegrees
2013-12-1,32,27,21,23,21,19,96,80,63,30.27,30.11,29.84,,,,15,7,17,0.01,,,145
2013-12-2,34,31,27,32,29,22,100,88,75,29.81,29.65,29.55,,,,17,8,22,0.15,,,120
2013-12-3,29,24,19,27,21,16,100,92,84,29.90,29.81,29.69,,,,21,15,25,0.01,,,353
2013-12-4,26,16,6,24,14,0,100,90,80,29.93,29.82,29.73,,,,35,20,44,0.35,,,343
2013-12-5,6,1,-5,0,-6,-12,83,76,68,30.50,30.26,29.97,,,,31,20,39,0.00,,,313
2013-12-6,-1,-6,-11,-10,-13,-17,79,69,58,30.81,30.67,30.50,,,,20,11,23,0.00,,,316
2013-12-7,10,-1,-13,-12,-16,-21,72,57,41,30.81,30.74,30.59,,,,14,4,17,0.00,,,271
2013-12-8,6,0,-7,-6,-9,-12,51,46,40,30.55,30.20,30.02,,,,14,7,,0.03,,,177
2013-12-9,,,,,,,,,,30.09,29.94,29.67,,,,24,15,30,0.00,,,302
2013-12-10,17,8,-2,,,,,,,30.37,30.03,29.78,,,,,,,0.02,,,-1
2013-12-11,16,8,1,8,0,-9,73,68,62,30.50,30.36,30.14,,,,23,14,30,0.00,,,219
2013-12-12,22,14,5,14,8,2,92,80,67,30.34,30.26,30.16,,,,10,6,12,0.00,,,21
2013-12-13,10,7,3,5,2,-1,88,82,76,30.43,30.33,30.24,,,,16,10,20,0.07,,,38
2013-12-14,8,3,-3,1,-3,-9,87,78,69,30.41,30.34,30.26,,,,21,10,24,0.00,,,352
2013-12-15,4,0,-4,0,-6,-10,87,79,71,30.31,30.24,30.13,,,,16,7,18,0.04,,,94
2013-12-16,34,19,4,26,16,2,91,76,61,30.10,30.01,29.98,,,,28,16,37,0.00,,,271
2013-12-17,34,23,11,25,16,8,92,77,62,30.18,30.10,29.98,,,,32,17,40,0.00,,,310
2013-12-18,44,28,12,29,21,7,88,71,53,30.02,29.76,29.60,,,,28,12,36,0.00,,,314
2013-12-19,12,5,-2,4,-4,-7,87,80,72,30.30,30.23,30.04,,,,29,18,35,0.16,,,8
2013-12-20,9,2,-6,1,-3,-9,95,84,73,30.26,30.11,29.98,,,,17,6,20,0.00,,,349
2013-12-21,2,-5,-13,-3,-8,-17,92,85,78,30.24,30.12,29.96,,,,18,9,21,0.00,,,351
2013-12-22,-1,-4,-8,-7,-10,-16,87,76,65,30.56,30.37,30.24,,,,24,18,29,0.00,,,343
2013-12-23,-3,-11,-20,-13,-20,-24,81,67,52,30.75,30.67,30.57,,,,24,12,29,0.00,,,324
2013-12-24,23,3,-17,18,1,-19,92,80,68,30.53,30.26,30.11,,,,22,11,25,0.22,,,184
2013-12-25,32,26,20,28,21,14,88,80,71,30.25,30.15,30.06,,,,24,15,30,0.00,,,315
2013-12-26,32,25,18,27,23,16,96,87,78,30.19,30.11,30.06,,,,10,3,13,0.00,,,283
2013-12-27,41,33,25,33,28,22,92,78,64,30.12,29.97,29.87,,,,35,13,43,0.00,,,255
2013-12-28,44,19,-7,30,14,-16,100,81,62,30.47,29.98,29.71,,,,39,20,52,0.00,,,1
2013-12-29,-2,-7,-12,-9,-16,-20,79,68,56,30.61,30.50,30.32,,,,31,12,37,0.00,,,337
2013-12-30,4,-4,-12,-2,-7,-15,92,82,71,30.42,30.30,30.22,,,,16,8,20,0.08,,,92
2013-12-31,-1,-9,-18,-6,-15,-23,82,73,64,30.57,30.47,30.36,,,,14,7,15,0.00,,,15